Time,TemperatureF,DewpointF,PressureIn,WindDirection,WindDirectionDegrees,WindSpeedMPH,WindSpeedGustMPH,Humidity,HourlyPrecipIn,Conditions,Clouds,dailyrainin,SoftwareType,DateUTC
2013-09-07 00:03:00,71.4,62.2,-100.00,ESE,123,0.0,1.0,73,0.00,,,0.00,meteohub,2013-09-07 05:03:00,
2013-09-07 00:08:00,71.2,62.1,-100.00,ESE,123,0.0,1.0,73,0.00,,,0.00,meteohub,2013-09-07 05:08:00,
2013-09-07 00:13:00,71.1,61.9,-100.00,ESE,123,0.0,1.0,73,0.00,,,0.00,meteohub,2013-09-07 05:13:00,
2013-09-07 00:18:00,70.9,61.9,-100.00,ESE,123,0.0,0.0,73,0.00,,,0.00,meteohub,2013-09-07 05:18:00,
2013-09-07 00:23:00,70.5,61.9,-100.00,ESE,123,0.0,1.0,74,0.00,,,0.00,meteohub,2013-09-07 05:23:00,
2013-09-07 00:28:00,70.3,61.7,-100.00,ESE,123,0.0,1.0,74,0.00,,,0.00,meteohub,2013-09-07 05:28:00,
2013-09-07 00:33:00,70.2,61.5,-100.00,ESE,123,0.0,1.0,74,0.00,,,0.00,meteohub,2013-09-07 05:33:00,
2013-09-07 00:38:00,69.8,61.2,-100.00,ESE,123,0.0,0.0,74,0.00,,,0.00,meteohub,2013-09-07 05:38:00,
2013-09-07 00:43:00,69.4,61.2,-100.00,ESE,123,0.0,0.0,75,0.00,,,0.00,meteohub,2013-09-07 05:43:00,
2013-09-07 00:48:00,69.1,60.8,-100.00,ESE,123,0.0,0.0,75,0.00,,,0.00,meteohub,2013-09-07 05:48:00,
2013-09-07 00:52:00,68.7,60.8,-100.00,ESE,123,0.0,0.0,76,0.00,,,0.00,meteohub,2013-09-07 05:52:00,
2013-09-07 00:57:00,68.4,60.8,-100.00,ESE,123,0.0,0.0,77,0.00,,,0.00,meteohub,2013-09-07 05:57:00,
2013-09-07 01:02:00,68.2,60.6,-100.00,ESE,123,0.0,0.0,77,0.00,,,0.00,meteohub,2013-09-07 06:02:00,
2013-09-07 01:07:00,67.8,60.3,-100.00,ESE,123,0.0,0.0,77,0.00,,,0.00,meteohub,2013-09-07 06:07:00,
2013-09-07 01:12:00,67.6,60.6,-100.00,ESE,123,0.0,0.0,78,0.00,,,0.00,meteohub,2013-09-07 06:12:00,
2013-09-07 01:18:00,67.6,60.6,-100.00,ESE,123,0.0,0.0,78,0.00,,,0.00,meteohub,2013-09-07 06:18:00,
2013-09-07 01:23:00,67.8,60.3,-100.00,ESE,123,0.0,0.0,77,0.00,,,0.00,meteohub,2013-09-07 06:23:00,
2013-09-07 01:28:00,68.4,60.4,-100.00,ESE,123,0.0,0.0,76,0.00,,,0.00,meteohub,2013-09-07 06:28:00,
2013-09-07 01:33:00,68.5,60.3,-100.00,ESE,123,0.0,0.0,75,0.00,,,0.00,meteohub,2013-09-07 06:33:00,
2013-09-07 01:38:00,68.5,60.3,-100.00,ESE,123,0.0,0.0,75,0.00,,,0.00,meteohub,2013-09-07 06:38:00,
2013-09-07 01:43:00,68.5,59.9,-100.00,ESE,123,0.0,0.0,74,0.00,,,0.00,meteohub,2013-09-07 06:43:00,
2013-09-07 01:48:00,68.4,59.7,-100.00,ESE,123,0.0,0.0,74,0.00,,,0.00,meteohub,2013-09-07 06:48:00,
2013-09-07 01:53:00,68.4,59.7,-100.00,ESE,123,0.0,0.0,74,0.00,,,0.00,meteohub,2013-09-07 06:53:00,
2013-09-07 01:58:00,68.4,59.7,-100.00,ESE,123,0.0,0.0,74,0.00,,,0.00,meteohub,2013-09-07 06:58:00,
2013-09-07 02:03:00,68.2,59.9,-100.00,ESE,123,0.0,0.0,75,0.00,,,0.00,meteohub,2013-09-07 07:03:00,
2013-09-07 02:08:00,68.4,59.7,-100.00,ESE,123,0.0,0.0,74,0.00,,,0.00,meteohub,2013-09-07 07:08:00,
2013-09-07 02:13:00,68.4,59.7,-100.00,ESE,123,0.0,0.0,74,0.00,,,0.00,meteohub,2013-09-07 07:13:00,
2013-09-07 02:18:00,68.2,59.9,-100.00,ESE,123,0.0,0.0,75,0.00,,,0.00,meteohub,2013-09-07 07:18:00,
2013-09-07 02:23:00,68.2,59.5,-100.00,ESE,123,0.0,1.0,74,0.00,,,0.00,meteohub,2013-09-07 07:23:00,
2013-09-07 02:28:00,68.0,59.7,-100.00,ESE,123,0.0,1.0,75,0.00,,,0.00,meteohub,2013-09-07 07:28:00,
2013-09-07 02:33:00,67.6,59.7,-100.00,ESE,123,0.0,1.0,76,0.00,,,0.00,meteohub,2013-09-07 07:33:00,
2013-09-07 02:38:00,67.5,60.1,-100.00,ESE,123,0.0,0.0,77,0.00,,,0.00,meteohub,2013-09-07 07:38:00,
2013-09-07 02:43:00,66.9,59.5,-100.00,ESE,123,0.0,0.0,77,0.00,,,0.00,meteohub,2013-09-07 07:43:00,
2013-09-07 02:48:00,66.7,59.7,-100.00,ESE,123,0.0,0.0,78,0.00,,,0.00,meteohub,2013-09-07 07:48:00,
2013-09-07 02:53:00,66.6,59.5,-100.00,ESE,123,0.0,0.0,78,0.00,,,0.00,meteohub,2013-09-07 07:53:00,
2013-09-07 02:58:00,66.4,59.4,-100.00,ESE,123,0.0,0.0,78,0.00,,,0.00,meteohub,2013-09-07 07:58:00,
2013-09-07 03:03:00,66.2,59.5,-100.00,ESE,123,0.0,0.0,79,0.00,,,0.00,meteohub,2013-09-07 08:03:00,
2013-09-07 03:08:00,66.4,59.7,-100.00,ESE,123,0.0,0.0,79,0.00,,,0.00,meteohub,2013-09-07 08:08:00,
2013-09-07 03:13:00,66.6,59.5,-100.00,ESE,123,0.0,0.0,78,0.00,,,0.00,meteohub,2013-09-07 08:13:00,
2013-09-07 03:18:00,66.4,59.0,-100.00,ESE,123,0.0,0.0,77,0.00,,,0.00,meteohub,2013-09-07 08:18:00,
2013-09-07 03:23:00,66.2,59.2,-100.00,ESE,123,0.0,0.0,78,0.00,,,0.00,meteohub,2013-09-07 08:23:00,
2013-09-07 03:28:00,66.2,59.2,-100.00,ESE,123,0.0,0.0,78,0.00,,,0.00,meteohub,2013-09-07 08:28:00,
2013-09-07 03:33:00,66.6,59.5,-100.00,ESE,123,0.0,0.0,78,0.00,,,0.00,meteohub,2013-09-07 08:33:00,
2013-09-07 03:38:00,66.9,59.5,-100.00,ESE,123,0.0,1.0,77,0.00,,,0.00,meteohub,2013-09-07 08:38:00,
2013-09-07 03:43:00,67.3,59.5,-100.00,ESE,123,0.0,1.0,76,0.00,,,0.00,meteohub,2013-09-07 08:43:00,
2013-09-07 03:48:00,67.3,59.5,-100.00,ESE,123,0.0,1.0,76,0.00,,,0.00,meteohub,2013-09-07 08:48:00,
2013-09-07 03:53:00,67.1,59.4,-100.00,ESE,123,0.0,1.0,76,0.00,,,0.00,meteohub,2013-09-07 08:53:00,
2013-09-07 03:58:00,66.7,59.4,-100.00,ESE,123,0.0,1.0,77,0.00,,,0.00,meteohub,2013-09-07 08:58:00,
2013-09-07 04:03:00,66.6,59.2,-100.00,ESE,123,0.0,1.0,77,0.00,,,0.00,meteohub,2013-09-07 09:03:00,
2013-09-07 04:08:00,66.4,59.4,-100.00,ESE,123,0.0,1.0,78,0.00,,,0.00,meteohub,2013-09-07 09:08:00,
2013-09-07 04:13:00,66.0,59.0,-100.00,ESE,123,0.0,0.0,78,0.00,,,0.00,meteohub,2013-09-07 09:13:00,
2013-09-07 04:18:00,65.8,58.8,-100.00,ESE,123,0.0,0.0,78,0.00,,,0.00,meteohub,2013-09-07 09:18:00,
2013-09-07 04:23:00,65.5,58.8,-100.00,ESE,123,0.0,0.0,79,0.00,,,0.00,meteohub,2013-09-07 09:23:00,
2013-09-07 04:28:00,65.5,59.2,-100.00,ESE,123,0.0,0.0,80,0.00,,,0.00,meteohub,2013-09-07 09:28:00,
2013-09-07 04:33:00,65.7,59.4,-100.00,ESE,123,0.0,0.0,80,0.00,,,0.00,meteohub,2013-09-07 09:33:00,
2013-09-07 04:38:00,65.8,59.2,-100.00,ESE,123,0.0,0.0,79,0.00,,,0.00,meteohub,2013-09-07 09:38:00,
2013-09-07 04:43:00,65.8,59.2,-100.00,ESE,123,0.0,1.0,79,0.00,,,0.00,meteohub,2013-09-07 09:43:00,
2013-09-07 04:48:00,65.7,59.0,-100.00,ESE,123,0.0,1.0,79,0.00,,,0.00,meteohub,2013-09-07 09:48:00,
2013-09-07 04:53:00,65.7,59.4,-100.00,ESE,123,0.0,1.0,80,0.00,,,0.00,meteohub,2013-09-07 09:53:00,
2013-09-07 04:58:00,65.5,59.2,-100.00,ESE,123,0.0,1.0,80,0.00,,,0.00,meteohub,2013-09-07 09:58:00,
2013-09-07 05:03:00,65.5,59.2,-100.00,ESE,123,0.0,1.0,80,0.00,,,0.00,meteohub,2013-09-07 10:03:00,
2013-09-07 05:08:00,65.7,59.4,-100.00,ESE,122,0.0,1.0,80,0.00,,,0.00,meteohub,2013-09-07 10:08:00,
2013-09-07 05:13:00,65.7,59.4,-100.00,ESE,123,0.0,1.0,80,0.00,,,0.00,meteohub,2013-09-07 10:13:00,
2013-09-07 05:18:00,65.7,59.4,-100.00,ESE,123,0.0,1.0,80,0.00,,,0.00,meteohub,2013-09-07 10:18:00,
2013-09-07 05:23:00,65.7,59.7,-100.00,ESE,123,0.0,1.0,81,0.00,,,0.00,meteohub,2013-09-07 10:23:00,
2013-09-07 05:28:00,65.3,59.4,-100.00,ESE,123,0.0,0.0,81,0.00,,,0.00,meteohub,2013-09-07 10:28:00,
2013-09-07 05:33:00,64.9,59.0,-100.00,ESE,123,0.0,0.0,81,0.00,,,0.00,meteohub,2013-09-07 10:33:00,
2013-09-07 05:38:00,64.8,59.2,-100.00,ESE,123,0.0,0.0,82,0.00,,,0.00,meteohub,2013-09-07 10:38:00,
2013-09-07 05:43:00,64.2,58.6,-100.00,ESE,123,0.0,1.0,82,0.00,,,0.00,meteohub,2013-09-07 10:43:00,
2013-09-07 05:48:00,64.0,58.8,-100.00,ESE,123,0.0,1.0,83,0.00,,,0.00,meteohub,2013-09-07 10:48:00,
2013-09-07 05:53:00,64.0,58.8,-100.00,ESE,123,0.0,0.0,83,0.00,,,0.00,meteohub,2013-09-07 10:53:00,
2013-09-07 05:58:00,64.0,58.8,-100.00,ESE,123,0.0,1.0,83,0.00,,,0.00,meteohub,2013-09-07 10:58:00,
2013-09-07 06:03:00,63.9,59.0,-100.00,ESE,123,0.0,1.0,84,0.00,,,0.00,meteohub,2013-09-07 11:03:00,
2013-09-07 06:08:00,63.9,59.0,-100.00,ESE,123,0.0,1.0,84,0.00,,,0.00,meteohub,2013-09-07 11:08:00,
2013-09-07 06:13:00,63.7,58.8,-100.00,ESE,123,0.0,0.0,84,0.00,,,0.00,meteohub,2013-09-07 11:13:00,
2013-09-07 06:18:00,63.5,58.8,-100.00,ESE,123,0.0,0.0,85,0.00,,,0.00,meteohub,2013-09-07 11:18:00,
2013-09-07 06:23:00,63.7,59.0,-100.00,ESE,123,0.0,0.0,85,0.00,,,0.00,meteohub,2013-09-07 11:23:00,
2013-09-07 06:28:00,63.7,59.0,-100.00,ESE,123,0.0,0.0,85,0.00,,,0.00,meteohub,2013-09-07 11:28:00,
2013-09-07 06:33:00,63.7,59.0,-100.00,ESE,123,0.0,0.0,85,0.00,,,0.00,meteohub,2013-09-07 11:33:00,
2013-09-07 06:38:00,63.7,59.0,-100.00,ESE,123,0.0,0.0,85,0.00,,,0.00,meteohub,2013-09-07 11:38:00,
2013-09-07 06:43:00,63.5,58.8,-100.00,ESE,123,0.0,0.0,85,0.00,,,0.00,meteohub,2013-09-07 11:43:00,
2013-09-07 06:48:00,63.5,59.2,-100.00,ESE,123,0.0,0.0,86,0.00,,,0.00,meteohub,2013-09-07 11:48:00,
2013-09-07 06:53:00,63.9,59.5,-100.00,ESE,123,0.0,0.0,86,0.00,,,0.00,meteohub,2013-09-07 11:53:00,
2013-09-07 06:58:00,63.9,59.5,-100.00,ESE,123,0.0,0.0,86,0.00,,,0.00,meteohub,2013-09-07 11:58:00,
2013-09-07 07:03:00,63.9,59.5,-100.00,ESE,123,0.0,0.0,86,0.00,,,0.00,meteohub,2013-09-07 12:03:00,
2013-09-07 07:08:00,64.0,59.7,-100.00,ESE,123,0.0,1.0,86,0.00,,,0.00,meteohub,2013-09-07 12:08:00,
2013-09-07 07:13:00,64.2,59.9,-100.00,ESE,123,0.0,1.0,86,0.00,,,0.00,meteohub,2013-09-07 12:13:00,
2013-09-07 07:18:00,64.8,60.4,-100.00,ESE,123,0.0,0.0,86,0.00,,,0.00,meteohub,2013-09-07 12:18:00,
2013-09-07 07:23:00,65.1,60.4,-100.00,ESE,123,0.0,0.0,85,0.00,,,0.00,meteohub,2013-09-07 12:23:00,
2013-09-07 07:28:00,65.7,61.0,-100.00,ESE,123,0.0,1.0,85,0.00,,,0.00,meteohub,2013-09-07 12:28:00,
2013-09-07 07:33:00,66.2,60.8,-100.00,ESE,123,0.0,1.0,83,0.00,,,0.00,meteohub,2013-09-07 12:33:00,
2013-09-07 07:38:00,66.7,61.3,-100.00,ESE,123,0.0,1.0,83,0.00,,,0.00,meteohub,2013-09-07 12:38:00,
2013-09-07 07:43:00,67.5,61.7,-100.00,ESE,123,0.0,1.0,82,0.00,,,0.00,meteohub,2013-09-07 12:43:00,
2013-09-07 07:48:00,68.5,62.1,-100.00,ESE,123,0.0,1.0,80,0.00,,,0.00,meteohub,2013-09-07 12:48:00,
2013-09-07 07:53:00,69.4,62.6,-100.00,ESE,123,0.0,1.0,79,0.00,,,0.00,meteohub,2013-09-07 12:53:00,
2013-09-07 07:58:00,70.2,63.0,-100.00,ESE,123,0.0,0.0,78,0.00,,,0.00,meteohub,2013-09-07 12:58:00,
2013-09-07 08:03:00,70.9,63.0,-100.00,South,180,5.0,5.0,76,0.00,,,0.00,meteohub,2013-09-07 13:03:00,
2013-09-07 08:08:00,71.8,63.9,-100.00,South,180,0.0,1.0,76,0.00,,,0.00,meteohub,2013-09-07 13:08:00,
2013-09-07 08:13:00,72.7,64.2,-100.00,South,179,0.0,5.0,75,0.00,,,0.00,meteohub,2013-09-07 13:13:00,
2013-09-07 08:18:00,73.8,64.9,-100.00,South,179,0.0,5.0,74,0.00,,,0.00,meteohub,2013-09-07 13:18:00,
2013-09-07 08:23:00,74.3,65.1,-100.00,South,180,3.0,3.0,73,0.00,,,0.00,meteohub,2013-09-07 13:23:00,
2013-09-07 08:28:00,75.2,65.1,-100.00,SSW,211,0.0,3.0,71,0.00,,,0.00,meteohub,2013-09-07 13:28:00,
2013-09-07 08:33:00,75.9,65.5,-100.00,SSW,207,0.0,5.0,70,0.00,,,0.00,meteohub,2013-09-07 13:33:00,
2013-09-07 08:38:00,76.5,65.1,-100.00,SSW,204,4.0,5.0,68,0.00,,,0.00,meteohub,2013-09-07 13:38:00,
2013-09-07 08:43:00,76.8,64.9,-100.00,SW,221,4.0,10.0,67,0.00,,,0.00,meteohub,2013-09-07 13:43:00,
2013-09-07 08:48:00,77.4,65.5,-100.00,SW,229,3.0,11.0,67,0.00,,,0.00,meteohub,2013-09-07 13:48:00,
2013-09-07 08:53:00,77.9,65.7,-100.00,SSW,203,3.0,11.0,66,0.00,,,0.00,meteohub,2013-09-07 13:53:00,
2013-09-07 08:58:00,77.7,65.5,-100.00,SW,222,3.0,11.0,66,0.00,,,0.00,meteohub,2013-09-07 13:58:00,
2013-09-07 09:03:00,78.4,65.7,-100.00,South,180,4.0,10.0,65,0.00,,,0.00,meteohub,2013-09-07 14:03:00,
2013-09-07 09:08:00,78.8,66.0,-100.00,South,178,2.0,10.0,65,0.00,,,0.00,meteohub,2013-09-07 14:08:00,
2013-09-07 09:13:00,79.5,66.2,-100.00,SSW,213,4.0,9.0,64,0.00,,,0.00,meteohub,2013-09-07 14:13:00,
2013-09-07 09:18:00,79.9,66.2,-100.00,SSW,196,1.0,10.0,63,0.00,,,0.00,meteohub,2013-09-07 14:18:00,
2013-09-07 09:23:00,79.9,66.2,-100.00,SSW,213,5.0,10.0,63,0.00,,,0.00,meteohub,2013-09-07 14:23:00,
2013-09-07 09:28:00,79.9,66.6,-100.00,South,189,3.0,11.0,64,0.00,,,0.00,meteohub,2013-09-07 14:28:00,
2013-09-07 09:33:00,80.2,66.6,-100.00,SW,219,2.0,11.0,63,0.00,,,0.00,meteohub,2013-09-07 14:33:00,
2013-09-07 09:38:00,80.8,66.6,-100.00,SSW,213,3.0,11.0,62,0.00,,,0.00,meteohub,2013-09-07 14:38:00,
2013-09-07 09:43:00,81.0,67.1,-100.00,SSW,208,3.0,10.0,63,0.00,,,0.00,meteohub,2013-09-07 14:43:00,
2013-09-07 09:48:00,81.9,67.6,-100.00,SW,219,0.0,11.0,62,0.00,,,0.00,meteohub,2013-09-07 14:48:00,
2013-09-07 09:53:00,82.6,67.3,-100.00,SW,215,1.0,11.0,60,0.00,,,0.00,meteohub,2013-09-07 14:53:00,
2013-09-07 09:58:00,83.1,67.3,-100.00,SW,223,4.0,9.0,59,0.00,,,0.00,meteohub,2013-09-07 14:58:00,
2013-09-07 10:03:00,83.3,67.5,-100.00,SSW,213,1.0,10.0,59,0.00,,,0.00,meteohub,2013-09-07 15:03:00,
2013-09-07 10:08:00,83.7,67.8,-100.00,South,187,3.0,10.0,59,0.00,,,0.00,meteohub,2013-09-07 15:08:00,
2013-09-07 10:13:00,84.0,67.6,-100.00,South,188,4.0,10.0,58,0.00,,,0.00,meteohub,2013-09-07 15:13:00,
2013-09-07 10:18:00,84.0,68.2,-100.00,South,184,0.0,7.0,59,0.00,,,0.00,meteohub,2013-09-07 15:18:00,
2013-09-07 10:23:00,84.4,68.0,-100.00,SSW,213,4.0,9.0,58,0.00,,,0.00,meteohub,2013-09-07 15:23:00,
2013-09-07 10:28:00,84.6,68.2,-100.00,South,180,0.0,10.0,58,0.00,,,0.00,meteohub,2013-09-07 15:28:00,
2013-09-07 10:33:00,85.3,68.4,-100.00,South,189,5.0,10.0,57,0.00,,,0.00,meteohub,2013-09-07 15:33:00,
2013-09-07 10:38:00,85.6,68.2,-100.00,SW,225,0.0,10.0,56,0.00,,,0.00,meteohub,2013-09-07 15:38:00,
2013-09-07 10:43:00,86.5,68.9,-100.00,South,184,0.0,11.0,56,0.00,,,0.00,meteohub,2013-09-07 15:43:00,
2013-09-07 10:48:00,88.0,69.3,-100.00,SSW,205,0.0,11.0,54,0.00,,,0.00,meteohub,2013-09-07 15:48:00,
2013-09-07 10:53:00,89.1,69.1,-100.00,SW,229,4.0,10.0,52,0.00,,,0.00,meteohub,2013-09-07 15:53:00,
2013-09-07 10:58:00,89.8,69.3,-100.00,West,271,2.0,8.0,51,0.00,,,0.00,meteohub,2013-09-07 15:58:00,
2013-09-07 11:03:00,89.8,69.8,-100.00,WSW,250,2.0,14.0,52,0.00,,,0.00,meteohub,2013-09-07 16:03:00,
2013-09-07 11:08:00,89.8,69.3,-100.00,SSW,213,4.0,14.0,51,0.00,,,0.00,meteohub,2013-09-07 16:08:00,
2013-09-07 11:13:00,90.0,69.4,-100.00,SSW,200,5.0,9.0,51,0.00,,,0.00,meteohub,2013-09-07 16:13:00,
2013-09-07 11:18:00,89.4,69.4,-100.00,SSE,164,5.0,9.0,52,0.00,,,0.00,meteohub,2013-09-07 16:18:00,
2013-09-07 11:23:00,88.3,69.6,-100.00,South,190,0.0,9.0,54,0.00,,,0.00,meteohub,2013-09-07 16:23:00,
2013-09-07 11:28:00,88.0,68.7,-100.00,SSW,193,6.0,7.0,53,0.00,,,0.00,meteohub,2013-09-07 16:28:00,
2013-09-07 11:33:00,87.4,69.3,-100.00,SSW,209,0.0,7.0,55,0.00,,,0.00,meteohub,2013-09-07 16:33:00,
2013-09-07 11:38:00,88.5,69.3,-100.00,SSW,200,0.0,7.0,53,0.00,,,0.00,meteohub,2013-09-07 16:38:00,
2013-09-07 11:43:00,89.1,69.1,-100.00,SSW,201,0.0,7.0,52,0.00,,,0.00,meteohub,2013-09-07 16:43:00,
2013-09-07 11:48:00,88.9,68.9,-100.00,SSW,206,2.0,9.0,52,0.00,,,0.00,meteohub,2013-09-07 16:48:00,
2013-09-07 11:53:00,89.8,69.3,-100.00,WSW,252,0.0,11.0,51,0.00,,,0.00,meteohub,2013-09-07 16:53:00,
2013-09-07 11:58:00,90.3,69.1,-100.00,SSW,213,0.0,12.0,50,0.00,,,0.00,meteohub,2013-09-07 16:58:00,
2013-09-07 12:03:00,90.0,68.9,-100.00,SW,227,3.0,12.0,50,0.00,,,0.00,meteohub,2013-09-07 17:03:00,
2013-09-07 12:08:00,89.6,68.5,-100.00,SW,217,5.0,10.0,50,0.00,,,0.00,meteohub,2013-09-07 17:08:00,
2013-09-07 12:13:00,90.9,69.6,-100.00,SW,228,2.0,13.0,50,0.00,,,0.00,meteohub,2013-09-07 17:13:00,
2013-09-07 12:18:00,91.2,69.4,-100.00,SW,215,0.0,13.0,49,0.00,,,0.00,meteohub,2013-09-07 17:18:00,
2013-09-07 12:23:00,91.6,69.1,-100.00,SSW,205,0.0,12.0,48,0.00,,,0.00,meteohub,2013-09-07 17:23:00,
2013-09-07 12:28:00,92.1,68.9,-100.00,SSE,164,0.0,11.0,47,0.00,,,0.00,meteohub,2013-09-07 17:28:00,
2013-09-07 12:33:00,91.8,69.3,-100.00,South,190,1.0,12.0,48,0.00,,,0.00,meteohub,2013-09-07 17:33:00,
2013-09-07 12:38:00,91.8,69.3,-100.00,WSW,249,0.0,12.0,48,0.00,,,0.00,meteohub,2013-09-07 17:38:00,
2013-09-07 12:43:00,93.2,69.3,-100.00,South,184,0.0,12.0,46,0.00,,,0.00,meteohub,2013-09-07 17:43:00,
2013-09-07 12:48:00,92.8,69.6,-100.00,SSW,194,0.0,11.0,47,0.00,,,0.00,meteohub,2013-09-07 17:48:00,
2013-09-07 12:53:00,91.4,68.9,-100.00,South,178,0.0,11.0,48,0.00,,,0.00,meteohub,2013-09-07 17:53:00,
2013-09-07 12:58:00,90.9,69.6,-100.00,South,184,3.0,11.0,50,0.00,,,0.00,meteohub,2013-09-07 17:58:00,
2013-09-07 13:03:00,91.0,69.3,-100.00,SSW,198,5.0,10.0,49,0.00,,,0.00,meteohub,2013-09-07 18:03:00,
2013-09-07 13:08:00,91.0,69.3,-100.00,SSW,210,3.0,10.0,49,0.00,,,0.00,meteohub,2013-09-07 18:08:00,
2013-09-07 13:13:00,90.9,69.1,-100.00,SSW,198,7.0,10.0,49,0.00,,,0.00,meteohub,2013-09-07 18:13:00,
2013-09-07 13:18:00,90.9,69.6,-100.00,South,184,2.0,10.0,50,0.00,,,0.00,meteohub,2013-09-07 18:18:00,
2013-09-07 13:23:00,91.6,70.3,-100.00,South,171,4.0,10.0,50,0.00,,,0.00,meteohub,2013-09-07 18:23:00,
2013-09-07 13:28:00,91.9,69.4,-100.00,South,191,0.0,12.0,48,0.00,,,0.00,meteohub,2013-09-07 18:28:00,
2013-09-07 13:33:00,92.7,69.4,-100.00,SSW,194,0.0,12.0,47,0.00,,,0.00,meteohub,2013-09-07 18:33:00,
2013-09-07 13:38:00,93.0,69.8,-100.00,SW,219,2.0,12.0,47,0.00,,,0.00,meteohub,2013-09-07 18:38:00,
2013-09-07 13:43:00,93.0,69.8,-100.00,SSW,209,6.0,12.0,47,0.00,,,0.00,meteohub,2013-09-07 18:43:00,
2013-09-07 13:48:00,93.0,69.8,-100.00,SSW,202,2.0,12.0,47,0.00,,,0.00,meteohub,2013-09-07 18:48:00,
2013-09-07 13:53:00,93.2,70.0,-100.00,South,171,1.0,12.0,47,0.00,,,0.00,meteohub,2013-09-07 18:53:00,
2013-09-07 13:58:00,93.6,69.6,-100.00,SSW,208,6.0,12.0,46,0.00,,,0.00,meteohub,2013-09-07 18:58:00,
2013-09-07 14:03:00,94.6,70.0,-100.00,SSW,192,2.0,12.0,45,0.00,,,0.00,meteohub,2013-09-07 19:03:00,
2013-09-07 14:08:00,94.1,70.2,-100.00,South,182,2.0,10.0,46,0.00,,,0.00,meteohub,2013-09-07 19:08:00,
2013-09-07 14:13:00,94.5,70.5,-100.00,SSW,193,12.0,12.0,46,0.00,,,0.00,meteohub,2013-09-07 19:13:00,
2013-09-07 14:18:00,94.3,69.1,-100.00,SW,226,0.0,12.0,44,0.00,,,0.00,meteohub,2013-09-07 19:18:00,
2013-09-07 14:23:00,94.6,68.7,-100.00,SW,232,7.0,12.0,43,0.00,,,0.00,meteohub,2013-09-07 19:23:00,
2013-09-07 14:28:00,95.2,69.1,-100.00,SSW,206,0.0,13.0,43,0.00,,,0.00,meteohub,2013-09-07 19:28:00,
2013-09-07 14:33:00,95.2,68.5,-100.00,SW,224,1.0,13.0,42,0.00,,,0.00,meteohub,2013-09-07 19:33:00,
2013-09-07 14:38:00,94.8,69.4,-100.00,SSW,200,0.0,13.0,44,0.00,,,0.00,meteohub,2013-09-07 19:38:00,
2013-09-07 14:43:00,94.5,69.3,-100.00,WSW,252,1.0,12.0,44,0.00,,,0.00,meteohub,2013-09-07 19:43:00,
2013-09-07 14:48:00,95.0,68.9,-100.00,SSW,206,11.0,12.0,43,0.00,,,0.00,meteohub,2013-09-07 19:48:00,
2013-09-07 14:53:00,93.6,68.4,-100.00,SW,223,7.0,13.0,44,0.00,,,0.00,meteohub,2013-09-07 19:53:00,
2013-09-07 14:58:00,93.6,69.1,-100.00,South,184,6.0,14.0,45,0.00,,,0.00,meteohub,2013-09-07 19:58:00,
2013-09-07 15:03:00,93.9,68.0,-100.00,WSW,238,6.0,14.0,43,0.00,,,0.00,meteohub,2013-09-07 20:03:00,
2013-09-07 15:08:00,94.5,69.8,-100.00,South,181,5.0,14.0,45,0.00,,,0.00,meteohub,2013-09-07 20:08:00,
2013-09-07 15:13:00,94.8,70.2,-100.00,SSW,203,1.0,12.0,45,0.00,,,0.00,meteohub,2013-09-07 20:13:00,
2013-09-07 15:18:00,94.8,68.9,-100.00,SW,216,7.0,11.0,43,0.00,,,0.00,meteohub,2013-09-07 20:18:00,
2013-09-07 15:23:00,94.6,68.0,-100.00,SW,236,2.0,13.0,42,0.00,,,0.00,meteohub,2013-09-07 20:23:00,
2013-09-07 15:28:00,94.8,68.2,-100.00,SSW,202,9.0,13.0,42,0.00,,,0.00,meteohub,2013-09-07 20:28:00,
2013-09-07 15:33:00,93.9,67.3,-100.00,South,175,5.0,16.0,42,0.00,,,0.00,meteohub,2013-09-07 20:33:00,
2013-09-07 15:38:00,93.4,66.9,-100.00,SW,218,9.0,16.0,42,0.00,,,0.00,meteohub,2013-09-07 20:38:00,
2013-09-07 15:43:00,93.0,66.6,-100.00,SSW,207,3.0,16.0,42,0.00,,,0.00,meteohub,2013-09-07 20:43:00,
2013-09-07 15:48:00,92.8,65.7,-100.00,SW,218,0.0,14.0,41,0.00,,,0.00,meteohub,2013-09-07 20:48:00,
2013-09-07 15:53:00,92.7,66.2,-100.00,SW,217,0.0,13.0,42,0.00,,,0.00,meteohub,2013-09-07 20:53:00,
2013-09-07 15:58:00,93.2,67.5,-100.00,SSW,210,4.0,13.0,43,0.00,,,0.00,meteohub,2013-09-07 20:58:00,
2013-09-07 16:03:00,94.1,67.5,-100.00,SW,236,5.0,13.0,42,0.00,,,0.00,meteohub,2013-09-07 21:03:00,
2013-09-07 16:08:00,94.8,66.7,-100.00,SW,221,5.0,12.0,40,0.00,,,0.00,meteohub,2013-09-07 21:08:00,
2013-09-07 16:13:00,94.8,66.0,-100.00,SSW,205,4.0,12.0,39,0.00,,,0.00,meteohub,2013-09-07 21:13:00,
2013-09-07 16:18:00,95.0,66.9,-100.00,SSW,203,5.0,12.0,40,0.00,,,0.00,meteohub,2013-09-07 21:18:00,
2013-09-07 16:23:00,95.7,67.5,-100.00,WSW,244,5.0,12.0,40,0.00,,,0.00,meteohub,2013-09-07 21:23:00,
2013-09-07 16:28:00,96.1,67.8,-100.00,SW,232,0.0,14.0,40,0.00,,,0.00,meteohub,2013-09-07 21:28:00,
2013-09-07 16:33:00,96.1,67.1,-100.00,SSW,203,5.0,14.0,39,0.00,,,0.00,meteohub,2013-09-07 21:33:00,
2013-09-07 16:38:00,96.1,67.8,-100.00,SW,214,2.0,14.0,40,0.00,,,0.00,meteohub,2013-09-07 21:38:00,
2013-09-07 16:43:00,96.3,68.7,-100.00,SSW,206,5.0,12.0,41,0.00,,,0.00,meteohub,2013-09-07 21:43:00,
2013-09-07 16:48:00,96.3,68.7,-100.00,SW,217,6.0,11.0,41,0.00,,,0.00,meteohub,2013-09-07 21:48:00,
2013-09-07 16:53:00,95.5,68.7,-100.00,SSW,213,4.0,13.0,42,0.00,,,0.00,meteohub,2013-09-07 21:53:00,
2013-09-07 16:58:00,94.8,68.2,-100.00,SSW,213,4.0,13.0,42,0.00,,,0.00,meteohub,2013-09-07 21:58:00,
2013-09-07 17:03:00,94.3,67.6,-100.00,WSW,240,6.0,13.0,42,0.00,,,0.00,meteohub,2013-09-07 22:03:00,
2013-09-07 17:08:00,94.5,68.5,-100.00,SSW,206,5.0,13.0,43,0.00,,,0.00,meteohub,2013-09-07 22:08:00,
2013-09-07 17:13:00,94.5,68.5,-100.00,SW,225,1.0,13.0,43,0.00,,,0.00,meteohub,2013-09-07 22:13:00,
2013-09-07 17:18:00,94.6,68.7,-100.00,SW,223,0.0,13.0,43,0.00,,,0.00,meteohub,2013-09-07 22:18:00,
2013-09-07 17:23:00,94.8,68.9,-100.00,SSW,196,7.0,11.0,43,0.00,,,0.00,meteohub,2013-09-07 22:23:00,
2013-09-07 17:28:00,94.5,69.3,-100.00,SSW,210,0.0,7.0,44,0.00,,,0.00,meteohub,2013-09-07 22:28:00,
2013-09-07 17:33:00,94.5,69.3,-100.00,SSW,194,1.0,10.0,44,0.00,,,0.00,meteohub,2013-09-07 22:33:00,
2013-09-07 17:38:00,94.5,69.3,-100.00,SSW,195,0.0,10.0,44,0.00,,,0.00,meteohub,2013-09-07 22:38:00,
2013-09-07 17:43:00,94.3,69.1,-100.00,SSW,192,6.0,7.0,44,0.00,,,0.00,meteohub,2013-09-07 22:43:00,
2013-09-07 17:48:00,93.7,69.8,-100.00,South,187,1.0,9.0,46,0.00,,,0.00,meteohub,2013-09-07 22:48:00,
2013-09-07 17:53:00,93.7,69.3,-100.00,SSW,196,0.0,9.0,45,0.00,,,0.00,meteohub,2013-09-07 22:53:00,
2013-09-07 17:58:00,93.6,69.6,-100.00,SSW,194,0.0,9.0,46,0.00,,,0.00,meteohub,2013-09-07 22:58:00,
2013-09-07 18:03:00,92.8,69.1,-100.00,SSW,211,0.0,9.0,46,0.00,,,0.00,meteohub,2013-09-07 23:03:00,
2013-09-07 18:08:00,92.1,68.9,-100.00,SSW,199,0.0,10.0,47,0.00,,,0.00,meteohub,2013-09-07 23:08:00,
2013-09-07 18:13:00,91.9,68.9,-100.00,SSW,204,0.0,10.0,47,0.00,,,0.00,meteohub,2013-09-07 23:13:00,
2013-09-07 18:18:00,91.8,69.3,-100.00,SSW,203,0.0,10.0,48,0.00,,,0.00,meteohub,2013-09-07 23:18:00,
2013-09-07 18:23:00,91.4,69.6,-100.00,SSW,201,0.0,7.0,49,0.00,,,0.00,meteohub,2013-09-07 23:23:00,
2013-09-07 18:28:00,91.0,69.8,-100.00,SSW,199,0.0,6.0,50,0.00,,,0.00,meteohub,2013-09-07 23:28:00,
2013-09-07 18:33:00,90.9,69.6,-100.00,SSW,193,0.0,5.0,50,0.00,,,0.00,meteohub,2013-09-07 23:33:00,
2013-09-07 18:38:00,90.7,70.0,-100.00,South,190,0.0,4.0,51,0.00,,,0.00,meteohub,2013-09-07 23:38:00,
2013-09-07 18:43:00,90.1,70.2,-100.00,South,187,0.0,4.0,52,0.00,,,0.00,meteohub,2013-09-07 23:43:00,
2013-09-07 18:48:00,89.6,70.2,-100.00,South,187,0.0,4.0,53,0.00,,,0.00,meteohub,2013-09-07 23:48:00,
2013-09-07 18:53:00,89.1,69.6,-100.00,South,187,0.0,2.0,53,0.00,,,0.00,meteohub,2013-09-07 23:53:00,
2013-09-07 18:58:00,88.7,70.0,-100.00,South,187,0.0,1.0,54,0.00,,,0.00,meteohub,2013-09-07 23:58:00,
2013-09-07 19:03:00,88.3,69.6,-100.00,South,187,0.0,1.0,54,0.00,,,0.00,meteohub,2013-09-08 00:03:00,
2013-09-07 19:09:00,88.0,69.3,-100.00,South,186,0.0,1.0,54,0.00,,,0.00,meteohub,2013-09-08 00:09:00,
2013-09-07 19:14:00,87.6,69.4,-100.00,South,186,0.0,0.0,55,0.00,,,0.00,meteohub,2013-09-08 00:14:00,
2013-09-07 19:19:00,87.1,68.9,-100.00,South,186,0.0,0.0,55,0.00,,,0.00,meteohub,2013-09-08 00:19:00,
2013-09-07 19:24:00,86.7,69.1,-100.00,South,186,0.0,0.0,56,0.00,,,0.00,meteohub,2013-09-08 00:24:00,
2013-09-07 19:29:00,86.4,68.7,-100.00,South,186,0.0,0.0,56,0.00,,,0.00,meteohub,2013-09-08 00:29:00,
2013-09-07 19:34:00,86.0,68.9,-100.00,South,186,0.0,0.0,57,0.00,,,0.00,meteohub,2013-09-08 00:34:00,
2013-09-07 19:39:00,85.8,68.4,-100.00,South,178,0.0,1.0,56,0.00,,,0.00,meteohub,2013-09-08 00:39:00,
2013-09-07 19:44:00,86.2,68.7,-100.00,SE,142,0.0,2.0,56,0.00,,,0.00,meteohub,2013-09-08 00:44:00,
2013-09-07 19:49:00,86.2,68.2,-100.00,SE,140,0.0,2.0,55,0.00,,,0.00,meteohub,2013-09-08 00:49:00,
2013-09-07 19:54:00,86.2,68.7,-100.00,SE,136,0.0,2.0,56,0.00,,,0.00,meteohub,2013-09-08 00:54:00,
2013-09-07 19:59:00,85.6,68.2,-100.00,SE,136,0.0,1.0,56,0.00,,,0.00,meteohub,2013-09-08 00:59:00,
2013-09-07 20:04:00,85.5,68.5,-100.00,SE,136,0.0,1.0,57,0.00,,,0.00,meteohub,2013-09-08 01:04:00,
2013-09-07 20:09:00,85.1,68.2,-100.00,SE,136,0.0,1.0,57,0.00,,,0.00,meteohub,2013-09-08 01:09:00,
2013-09-07 20:14:00,84.6,68.2,-100.00,SE,136,0.0,1.0,58,0.00,,,0.00,meteohub,2013-09-08 01:14:00,
2013-09-07 20:19:00,84.2,68.4,-100.00,SE,136,0.0,1.0,59,0.00,,,0.00,meteohub,2013-09-08 01:19:00,
2013-09-07 20:24:00,83.8,68.0,-100.00,SE,136,0.0,1.0,59,0.00,,,0.00,meteohub,2013-09-08 01:24:00,
2013-09-07 20:29:00,83.8,68.0,-100.00,SE,136,0.0,1.0,59,0.00,,,0.00,meteohub,2013-09-08 01:29:00,
2013-09-07 20:34:00,83.8,68.0,-100.00,SE,136,0.0,1.0,59,0.00,,,0.00,meteohub,2013-09-08 01:34:00,
2013-09-07 20:39:00,83.7,67.8,-100.00,SE,136,0.0,1.0,59,0.00,,,0.00,meteohub,2013-09-08 01:39:00,
2013-09-07 20:44:00,83.1,67.8,-100.00,SE,136,0.0,1.0,60,0.00,,,0.00,meteohub,2013-09-08 01:44:00,
2013-09-07 20:49:00,82.9,67.6,-100.00,SE,136,0.0,1.0,60,0.00,,,0.00,meteohub,2013-09-08 01:49:00,
2013-09-07 20:54:00,82.8,67.5,-100.00,SE,136,0.0,1.0,60,0.00,,,0.00,meteohub,2013-09-08 01:54:00,
2013-09-07 20:59:00,82.8,67.5,-100.00,SE,136,0.0,1.0,60,0.00,,,0.00,meteohub,2013-09-08 01:59:00,
2013-09-07 21:03:00,82.6,67.3,-100.00,SE,136,0.0,1.0,60,0.00,,,0.00,meteohub,2013-09-08 02:03:00,
2013-09-07 21:08:00,82.8,67.5,-100.00,SE,136,0.0,1.0,60,0.00,,,0.00,meteohub,2013-09-08 02:08:00,
2013-09-07 21:13:00,82.8,66.9,-100.00,SE,136,0.0,1.0,59,0.00,,,0.00,meteohub,2013-09-08 02:13:00,
2013-09-07 21:18:00,82.9,67.1,-100.00,SE,136,0.0,1.0,59,0.00,,,0.00,meteohub,2013-09-08 02:18:00,
2013-09-07 21:23:00,82.9,67.1,-100.00,SE,136,0.0,1.0,59,0.00,,,0.00,meteohub,2013-09-08 02:23:00,
2013-09-07 21:28:00,82.9,67.1,-100.00,SE,136,0.0,1.0,59,0.00,,,0.00,meteohub,2013-09-08 02:28:00,
2013-09-07 21:33:00,82.8,66.9,-100.00,SE,136,0.0,1.0,59,0.00,,,0.00,meteohub,2013-09-08 02:33:00,
2013-09-07 21:38:00,82.8,66.9,-100.00,SE,136,0.0,1.0,59,0.00,,,0.00,meteohub,2013-09-08 02:38:00,
2013-09-07 21:43:00,82.8,66.9,-100.00,SE,136,0.0,1.0,59,0.00,,,0.00,meteohub,2013-09-08 02:43:00,
2013-09-07 21:48:00,82.8,66.9,-100.00,SE,136,0.0,1.0,59,0.00,,,0.00,meteohub,2013-09-08 02:48:00,
2013-09-07 21:53:00,82.6,66.7,-100.00,SE,136,0.0,1.0,59,0.00,,,0.00,meteohub,2013-09-08 02:53:00,
2013-09-07 21:58:00,82.6,66.7,-100.00,SE,136,0.0,1.0,59,0.00,,,0.00,meteohub,2013-09-08 02:58:00,
2013-09-07 22:03:00,82.6,66.7,-100.00,SE,136,0.0,1.0,59,0.00,,,0.00,meteohub,2013-09-08 03:03:00,
2013-09-07 22:08:00,82.8,66.9,-100.00,SE,138,0.0,1.0,59,0.00,,,0.00,meteohub,2013-09-08 03:08:00,
2013-09-07 22:13:00,82.8,66.9,-100.00,SE,137,0.0,1.0,59,0.00,,,0.00,meteohub,2013-09-08 03:13:00,
2013-09-07 22:18:00,82.8,66.9,-100.00,SE,138,0.0,4.0,59,0.00,,,0.00,meteohub,2013-09-08 03:18:00,
2013-09-07 22:23:00,82.6,66.7,-100.00,SE,138,0.0,4.0,59,0.00,,,0.00,meteohub,2013-09-08 03:23:00,
2013-09-07 22:28:00,82.2,66.9,-100.00,SE,137,0.0,4.0,60,0.00,,,0.00,meteohub,2013-09-08 03:28:00,
2013-09-07 22:33:00,82.0,66.7,-100.00,SE,138,0.0,1.0,60,0.00,,,0.00,meteohub,2013-09-08 03:33:00,
2013-09-07 22:38:00,82.0,66.7,-100.00,SE,138,0.0,1.0,60,0.00,,,0.00,meteohub,2013-09-08 03:38:00,
2013-09-07 22:43:00,82.0,66.4,-100.00,SE,145,0.0,1.0,59,0.00,,,0.00,meteohub,2013-09-08 03:43:00,
2013-09-07 22:48:00,82.2,66.4,-100.00,SE,145,0.0,1.0,59,0.00,,,0.00,meteohub,2013-09-08 03:48:00,
2013-09-07 22:53:00,82.2,66.4,-100.00,SE,145,0.0,3.0,59,0.00,,,0.00,meteohub,2013-09-08 03:53:00,
2013-09-07 22:58:00,82.4,66.6,-100.00,SE,145,0.0,3.0,59,0.00,,,0.00,meteohub,2013-09-08 03:58:00,
2013-09-07 23:01:00,82.4,66.6,-100.00,SE,145,0.0,3.0,59,0.00,,,0.00,meteohub,2013-09-08 04:01:00,
2013-09-07 23:02:00,82.4,66.6,-100.00,SE,145,0.0,3.0,59,0.00,,,0.00,meteohub,2013-09-08 04:02:00,
2013-09-07 23:03:00,82.4,66.6,-100.00,SE,145,0.0,3.0,59,0.00,,,0.00,meteohub,2013-09-08 04:03:00,
2013-09-07 23:08:00,82.4,67.1,-100.00,SE,145,0.0,1.0,60,0.00,,,0.00,meteohub,2013-09-08 04:08:00,
2013-09-07 23:13:00,82.2,66.9,-100.00,SSE,148,0.0,1.0,60,0.00,,,0.00,meteohub,2013-09-08 04:13:00,
2013-09-07 23:18:00,82.2,66.9,-100.00,South,187,0.0,1.0,60,0.00,,,0.00,meteohub,2013-09-08 04:18:00,
2013-09-07 23:23:00,82.4,67.1,-100.00,SSW,192,0.0,6.0,60,0.00,,,0.00,meteohub,2013-09-08 04:23:00,
2013-09-07 23:28:00,82.6,67.3,-100.00,SW,225,4.0,6.0,60,0.00,,,0.00,meteohub,2013-09-08 04:28:00,
2013-09-07 23:33:00,82.6,66.7,-100.00,SSW,213,0.0,7.0,59,0.00,,,0.00,meteohub,2013-09-08 04:33:00,
2013-09-07 23:38:00,82.8,66.9,-100.00,SSW,211,4.0,9.0,59,0.00,,,0.00,meteohub,2013-09-08 04:38:00,
2013-09-07 23:43:00,82.8,66.9,-100.00,SSW,202,4.0,9.0,59,0.00,,,0.00,meteohub,2013-09-08 04:43:00,
2013-09-07 23:48:00,82.8,66.9,-100.00,SSW,203,0.0,9.0,59,0.00,,,0.00,meteohub,2013-09-08 04:48:00,
2013-09-07 23:53:00,82.8,66.9,-100.00,SW,215,5.0,7.0,59,0.00,,,0.00,meteohub,2013-09-08 04:53:00,
2013-09-07 23:58:00,82.8,66.9,-100.00,SSW,205,6.0,6.0,59,0.00,,,0.00,meteohub,2013-09-08 04:58:00,